Flag for Honduras Weather past 2 weeks in Tegucigalpa, Honduras

Now
68 °F

Passing clouds.


Feels Like: 68 °F
Forecast: 67 / 81 °F
Wind: 7 mph from North

Location: Tegucigalpa Airport

Current Time: Mar 28, 2015 at 11:21:32 PM

Latest Report: Mar 28, 2015 at 11:00 PM


Visibility: N/A

Pressure: 30.21 "Hg

Humidity: 88%

Dew point: 64 °F

Location of TegucigalpaLocation

Historic Weather in Tegucigalpa — Graph

°F

Tegucigalpa temperature yesterday

Maximum temperature yesterday: 90 °F (at 2:00 PM)
Minimum temperature yesterday: 61 °F (at 5:00 AM)
Average temperature yesterday: 74 °F

Past Weeks' High & Low Weather Summary

 TemperatureHumidityPressure
High91 °F (Mar 26, 2:00 PM)100% (Mar 27, 5:00 AM)30.24 "Hg (Mar 27, 5:00 AM)
Low57 °F (Mar 19, 5:00 AM)27% (Mar 22, 3:00 PM)29.59 "Hg (Mar 19, 12:00 AM)
Average73 °F61%30.10 "Hg
* Reported Mar 13 10:00 PM — Mar 28 10:00 PM, Tegucigalpa, Weather by CustomWeather, © 2015

Note: Actual official high and low records may vary slightly from our data, if they occured in-between our weather recording intervals... More about our weather records

Advertising

Tegucigalpa weather history for previous 24 hours

 ConditionsComfort  
Time TempWeatherWind HumidityBarometerVisibility
10:00 PM
Sat, Mar 28
82 °FPassing clouds.7 mph55%30.24 "HgN/A
9:00 PM68 °FPartly cloudy.9 mph88%30.21 "HgN/A
8:00 PM70 °FPartly cloudy.7 mph83%30.18 "HgN/A
7:00 PM70 °FPartly cloudy.12 mph88%30.15 "HgN/A
6:00 PM72 °FPartly cloudy.14 mph78%30.12 "HgN/A
5:00 PM75 °FBroken clouds.14 mph69%30.12 "HgN/A
4:00 PM75 °FScattered clouds.16 mph65%30.09 "HgN/A
3:00 PM77 °FBroken clouds.16 mph61%30.09 "HgN/A
2:00 PM77 °FBroken clouds.14 mph61%30.12 "HgN/A
1:00 PM77 °FPartly sunny.16 mph57%30.15 "HgN/A
12:00 PM79 °FPartly sunny.16 mph54%30.18 "HgN/A
11:00 AM81 °FScattered clouds.16 mph51%30.18 "HgN/A
10:00 AM79 °FScattered clouds.14 mph54%30.18 "HgN/A
9:00 AM75 °FScattered clouds.14 mph65%30.18 "HgN/A
8:00 AM72 °FScattered clouds.12 mph73%30.18 "HgN/A
7:00 AM70 °FPartly sunny.6 mph73%30.18 "HgN/A
6:00 AM68 °FBroken clouds.6 mph78%30.15 "HgN/A
5:00 AM68 °FPassing clouds.5 mph73%30.04 "HgN/A
4:00 AM68 °FPassing clouds.7 mph73%30.04 "HgN/A
3:00 AM70 °FPassing clouds.No wind69%30.12 "HgN/A
2:00 AM70 °FPassing clouds.5 mph73%30.12 "Hg5 mi
1:00 AM72 °FPassing clouds.9 mph69%30.15 "Hg5 mi
12:00 AM72 °FPassing clouds.7 mph73%30.15 "Hg5 mi
11:00 PM
Fri, Mar 27
70 °FPassing clouds.No wind83%30.15 "Hg5 mi
Weather by CustomWeather, © 2015

See weather overviewHow to use our weather pages